Wind_Speed
1 2 4 3 2 4 8 7 7 10 11 9 9 8 9 9 11 14 18 19 14 11 14 15 15 16 20 24 24 23 23 23 24 25 24 25 27 28 31 34 29 25 26 27 27 26 25 25 24 23 22 20 17 18 19 20 20 19 19 20 20 20 19 18 17 15 15 16 17 19 20 20 21 21 21 23 24 25 25 26 27 29 30 30 31 30
1 1 3 4 4 5 7 6 6 7 9 10 9 9 9 9 13 16 17 19 17 14 15 17 14 14 20 26 26 22 20 22 23 23 23 24 25 25 28 34 30 23 24 26 26 25 25 25 24 23 23 20 17 17 18 19 20 19 19 19 20 20 20 19 17 16 15 16 17 18 19 20 21 22 22 23 25 26 25 25 27 29 30 30 31 31
2 2 3 5 4 5 8 9 10 11 12 11 9 11 11 12 15 13 14 19 18 15 16 18 17 17 20 24 24 20 18 22 23 22 23 24 25 25 26 32 33 26 25 27 26 25 25 24 23 23 23 21 18 17 16 17 18 18 18 19 20 20 20 19 18 17 16 16 17 18 19 19 20 21 22 23 24 25 24 24 26 28 29 30 30 30
3 3 4 6 5 7 8 8 9 11 12 10 11 13 13 15 16 11 13 20 17 15 17 19 20 21 21 23 24 21 20 23 24 23 24 25 24 25 25 27 32 31 28 27 26 25 25 23 23 24 23 21 20 17 15 15 16 18 18 17 19 20 20 20 18 18 18 17 17 18 19 19 20 21 21 22 23 23 23 23 23 25 28 30 29 28
4 5 5 5 6 8 9 8 8 10 10 10 14 16 14 15 17 14 16 19 18 17 19 20 20 20 20 22 22 22 22 22 22 22 23 24 23 24 25 24 31 35 30 26 26 25 24 23 24 24 23 21 20 19 16 16 17 17 17 16 17 19 19 19 18 18 19 19 18 18 19 20 21 22 22 22 22 22 22 21 21 23 26 29 29 26
6 5 6 8 8 7 8 9 9 10 11 12 15 16 16 16 16 15 16 17 18 17 19 21 20 19 19 20 21 21 23 21 20 22 23 23 24 26 27 26 30 32 27 25 26 25 24 24 24 24 22 21 20 19 17 17 18 17 16 15 16 18 18 17 17 18 19 20 20 19 20 20 21 22 23 23 22 21 20 20 20 22 24 26 28 27
5 5 7 10 9 8 8 8 9 10 11 12 15 15 15 15 15 15 15 16 16 14 17 22 20 19 19 20 22 22 23 23 23 25 25 24 25 27 26 25 26 25 25 26 27 26 24 23 24 23 21 21 20 19 17 18 18 17 16 15 16 17 17 16 17 18 19 21 21 20 20 20 21 21 22 22 21 20 19 19 19 20 22 24 26 28
4 5 6 8 8 9 8 8 10 10 9 11 14 13 12 13 14 14 14 13 14 15 18 20 18 19 17 17 22 24 23 23 24 25 25 24 24 23 22 23 23 22 24 27 28 24 21 20 21 21 20 20 20 19 17 18 18 16 15 15 16 16 16 16 16 18 19 20 21 20 20 20 19 20 20 20 20 19 18 18 18 19 21 22 24 26
4 5 6 7 7 9 9 9 10 10 11 13 14 13 13 13 13 13 12 11 13 15 15 13 14 17 15 14 21 24 22 22 22 23 24 23 21 19 20 22 21 20 23 25 25 22 19 20 21 20 20 19 19 19 18 18 17 15 15 15 15 14 15 16 16 17 19 19 20 19 20 20 19 20 20 21 21 20 19 19 18 19 19 21 24 25
6 6 7 7 7 8 9 10 10 10 12 13 11 12 13 12 11 10 9 9 11 11 10 11 14 16 14 14 20 22 21 23 23 22 23 23 20 18 19 21 21 20 22 23 23 20 20 23 22 20 20 19 18 17 18 18 17 15 14 14 14 13 15 16 16 17 18 19 19 19 20 21 21 21 21 22 22 21 20 19 18 18 19 20 25 27
7 8 8 7 7 9 9 10 9 8 9 9 8 9 9 9 10 9 9 9 9 9 10 11 14 14 13 16 21 20 21 24 23 22 22 21 19 18 19 20 21 20 21 23 22 19 20 24 22 19 19 18 16 16 17 18 16 14 14 13 12 13 14 15 15 15 17 18 19 19 20 20 21 21 21 21 21 21 20 19 19 18 18 20 24 28
8 7 7 8 9 10 10 10 9 7 8 8 6 7 7 8 9 8 8 8 7 9 10 11 14 14 14 17 19 19 21 23 22 21 22 21 19 18 19 21 22 21 21 21 20 19 20 22 20 17 16 15 13 15 17 17 16 14 14 12 11 12 13 14 14 15 16 17 18 18 18 19 20 20 20 20 21 21 20 20 20 20 19 20 21 26
9 7 8 9 9 10 10 9 9 9 9 8 8 8 8 9 10 8 8 7 7 10 13 13 15 14 14 18 19 19 22 22 21 21 21 21 19 17 19 20 21 21 21 20 19 20 21 20 19 16 14 12 12 15 17 17 16 15 13 12 11 12 13 14 14 14 15 15 16 17 16 17 19 19 18 19 21 21 21 20 21 21 20 20 20 24
10 10 12 10 8 10 11 10 10 10 10 10 10 10 10 11 11 9 9 7 7 12 15 14 13 12 15 20 20 19 22 21 21 20 19 20 19 18 19 19 19 20 19 20 21 20 18 17 19 16 13 13 14 15 17 17 17 15 13 12 12 13 13 14 14 14 14 14 14 15 14 15 16 16 15 17 19 19 20 21 21 21 21 21 20 22
11 12 13 12 11 12 12 12 11 10 10 10 10 10 11 12 11 9 11 11 10 13 15 15 14 13 15 19 19 18 19 19 19 19 17 18 19 19 18 17 17 18 18 20 21 20 18 17 18 16 14 15 16 16 17 18 17 15 14 13 14 14 14 15 15 14 14 14 14 14 13 13 13 13 13 14 15 17 18 20 21 21 22 21 21 21
13 14 12 13 15 14 13 13 11 11 10 9 9 10 11 12 11 11 13 15 14 13 14 15 15 16 17 18 18 18 19 18 17 18 18 18 18 19 18 16 16 16 16 19 19 18 17 17 16 15 16 17 18 17 18 18 17 16 15 16 16 16 15 15 14 14 13 13 13 13 13 13 12 12 13 13 14 15 16 19 21 22 22 22 21 21
14 16 13 14 16 13 13 14 12 11 11 9 9 10 11 12 12 13 13 13 13 10 11 11 10 13 18 19 17 17 18 17 16 16 17 17 17 18 17 16 16 15 15 16 16 15 15 15 15 16 17 18 18 18 18 18 18 17 17 18 17 17 16 15 14 14 13 12 13 13 13 13 13 13 15 15 15 15 16 18 20 22 23 22 21 20
13 16 14 13 15 13 12 14 13 12 11 9 10 10 12 12 11 11 11 12 11 8 7 8 6 9 15 19 17 13 13 15 16 16 16 16 16 16 16 17 17 16 14 15 16 14 13 14 15 16 18 19 19 18 18 19 19 20 20 19 19 19 18 16 14 13 13 13 13 13 13 14 14 15 16 16 16 16 17 18 20 22 23 23 21 20
12 15 15 13 14 14 13 14 14 11 10 10 10 10 10 10 10 10 10 11 11 7 6 7 6 10 16 20 20 15 13 15 15 15 15 15 15 15 16 17 16 15 16 18 18 16 14 14 16 17 18 19 20 19 20 21 22 23 22 22 21 21 20 18 17 16 15 14 14 14 14 15 16 16 17 17 17 16 17 18 19 21 23 24 22 20
12 13 16 14 13 15 14 14 13 11 9 9 10 11 9 9 10 10 10 11 9 7 9 7 7 14 18 19 21 19 16 18 17 14 15 16 16 16 17 17 15 14 17 20 22 21 18 17 19 21 21 21 22 22 23 24 25 26 26 25 24 23 23 22 20 19 18 17 17 16 16 16 17 17 17 17 17 16 16 17 19 21 23 24 23 21
13 12 15 15 14 15 15 12 11 11 10 11 12 12 11 11 12 11 10 11 10 9 11 7 7 17 18 15 19 19 18 21 19 17 16 16 17 17 16 16 15 15 16 18 20 22 22 20 20 23 24 25 26 26 27 28 28 29 29 28 27 26 25 25 24 24 22 21 20 19 19 18 18 18 18 18 17 16 16 17 18 19 21 23 23 22
14 13 14 15 16 16 14 12 12 13 13 13 13 12 12 12 12 12 11 11 10 11 13 9 9 15 15 12 17 19 18 20 19 18 17 17 19 20 17 16 15 15 17 17 18 20 21 21 21 22 24 25 27 28 29 30 30 31 31 30 30 29 28 27 27 27 26 24 23 22 21 20 20 20 19 19 18 17 16 17 18 18 19 22 23 22
14 15 14 14 14 14 14 13 13 14 14 15 13 12 11 11 11 12 13 11 11 12 14 12 13 16 15 14 17 18 18 20 20 19 18 18 21 21 19 18 16 15 17 19 19 20 21 21 22 23 23 24 26 26 27 28 29 30 30 30 30 29 28 28 28 28 28 26 25 24 22 22 21 21 20 20 19 18 17 17 19 19 19 20 22 22
14 15 14 13 13 14 15 14 13 14 13 13 13 11 11 12 11 13 13 12 12 12 13 13 14 17 17 16 17 18 18 19 20 20 20 19 21 20 18 18 17 15 16 19 20 20 21 22 23 24 24 25 26 27 27 27 28 28 28 28 28 27 26 25 25 26 26 25 25 24 22 22 22 21 21 21 20 19 19 18 19 20 19 19 21 22
15 14 13 13 13 14 15 13 12 13 12 12 13 13 12 12 12 13 13 12 12 12 12 12 13 16 16 15 17 20 19 18 18 19 19 20 21 20 18 19 19 17 17 18 19 20 22 23 25 25 25 26 27 28 28 28 28 28 28 27 27 26 25 23 22 22 22 22 22 22 21 21 21 21 21 21 20 20 20 19 19 20 20 19 20 22
16 14 13 13 13 14 16 15 15 15 15 15 15 14 14 13 13 13 13 13 12 12 12 12 13 15 16 16 18 21 21 20 19 19 19 20 21 20 19 19 19 19 19 19 19 20 22 23 24 25 25 26 26 26 26 27 27 27 27 26 26 25 24 22 21 20 20 19 20 20 19 19 20 20 21 20 20 20 20 20 19 20 20 20 20 21
16 14 14 13 14 15 16 17 18 18 17 17 17 16 15 14 13 12 13 13 12 11 12 14 15 15 16 17 18 20 22 21 20 19 19 19 19 20 20 20 20 20 20 20 20 21 22 23 23 24 24 24 24 24 25 25 25 25 25 25 25 24 23 22 20 20 19 19 19 19 18 18 18 19 19 19 20 20 21 21 20 20 21 20 20 21
15 15 15 15 15 16 16 17 18 18 17 17 18 18 16 15 14 13 13 14 14 12 13 14 15 15 15 17 18 19 20 20 20 19 19 18 18 18 19 20 20 20 20 21 21 21 22 23 22 22 21 21 22 23 23 23 23 23 22 23 23 22 22 21 20 19 19 19 18 18 17 17 18 18 18 19 20 20 21 21 21 20 21 21 20 21
16 15 15 15 15 15 16 17 17 17 17 17 17 17 16 15 15 14 14 14 13 12 12 13 14 14 15 17 18 19 19 19 18 18 18 18 18 18 18 18 19 20 20 21 21 20 19 20 20 19 19 20 21 22 23 22 21 20 20 20 20 20 20 20 19 19 19 18 17 17 17 17 17 18 19 19 20 20 20 21 21 20 21 22 21 21
16 16 15 16 15 15 17 17 15 15 17 17 17 17 16 15 16 15 14 14 13 12 12 12 13 14 15 16 16 16 16 16 17 17 17 18 18 18 19 19 20 21 21 20 20 18 17 17 17 18 19 21 22 22 21 19 17 17 17 17 17 17 17 17 17 17 17 16 16 16 16 17 17 17 18 19 19 20 21 21 21 21 20 21 22 21
17 17 16 17 16 16 17 16 15 16 17 17 18 17 16 15 15 14 13 14 15 14 13 13 13 14 14 13 14 14 14 15 16 17 18 19 18 17 18 19 20 20 20 19 18 17 16 17 17 18 21 22 21 19 16 15 14 14 14 14 13 13 13 13 14 14 15 15 15 15 16 16 16 16 16 17 18 19 20 21 21 21 20 20 21 21
17 17 17 17 16 16 17 18 18 18 18 17 18 17 15 14 14 14 14 15 15 15 14 14 14 13 12 11 12 13 14 16 17 17 18 18 16 15 17 19 19 19 19 18 18 17 16 16 18 20 21 20 16 13 12 12 12 12 11 10 10 9 10 10 11 12 13 14 14 15 15 15 16 16 17 17 18 19 20 21 21 21 20 20 20 21
17 18 18 18 17 16 17 19 19 19 19 19 18 16 14 13 13 15 16 16 15 15 14 14 14 12 11 11 13 14 14 15 17 18 19 19 17 15 16 17 18 19 18 17 17 17 17 18 20 21 19 15 12 11 11 11 10 9 8 8 7 7 7 8 9 10 12 13 14 15 16 17 18 18 18 18 19 19 20 20 21 21 20 20 20 21
17 18 18 19 18 17 17 19 19 19 20 21 18 14 13 14 16 16 16 15 14 14 14 14 13 12 12 12 13 14 15 15 16 18 19 20 20 18 17 17 17 18 18 16 16 17 17 19 21 20 15 11 10 10 10 10 8 7 7 6 6 6 6 7 8 10 12 13 15 16 17 18 18 19 19 19 20 20 20 20 21 20 20 20 20 20
16 17 18 19 18 17 17 19 20 19 20 19 17 15 16 17 17 16 16 14 13 13 13 13 13 12 12 13 14 14 15 17 17 18 19 20 21 20 19 18 17 17 17 14 14 15 17 19 21 17 11 9 9 10 9 8 8 6 6 6 5 6 7 8 9 10 11 13 14 15 16 17 18 18 19 19 19 20 20 20 20 20 20 20 20 20
16 17 18 19 19 18 18 19 20 20 20 19 18 18 18 17 16 16 16 16 14 13 13 13 13 13 12 13 14 15 16 17 18 19 19 19 19 18 19 18 17 16 16 14 13 12 14 18 19 15 10 9 9 9 8 8 7 6 5 6 7 7 8 8 9 10 11 12 13 14 15 16 17 17 18 18 19 19 19 19 19 19 19 18 18 19
15 17 18 18 18 18 19 19 19 20 21 21 19 18 18 17 17 18 18 18 17 16 15 15 14 13 13 13 15 16 17 18 19 18 17 17 17 17 17 17 17 16 16 15 14 12 13 16 17 14 10 9 9 9 8 7 7 6 6 7 8 8 8 9 10 10 11 12 12 13 13 14 14 15 16 16 16 16 17 17 17 16 16 16 16 17
15 15 17 18 19 19 20 20 19 20 21 21 19 18 19 19 19 19 20 19 18 17 16 15 14 14 13 14 15 16 17 18 18 17 16 16 16 16 16 16 16 16 16 15 14 13 14 15 16 14 10 8 8 8 8 7 7 7 8 8 9 9 10 10 11 11 12 12 12 12 11 11 11 11 12 12 12 12 13 13 13 13 13 13 13 13
14 15 17 18 19 20 21 21 20 20 21 22 21 20 21 21 21 21 21 19 17 17 17 16 14 14 14 15 15 16 18 18 17 17 16 15 14 16 16 15 15 15 14 13 12 12 13 14 15 14 10 8 8 8 8 7 7 7 8 9 10 10 10 10 11 12 12 13 12 11 10 9 8 8 8 8 8 9 10 10 11 11 11 11 11 11
15 16 17 18 19 20 21 21 21 21 22 22 22 22 22 23 22 21 21 20 19 19 19 17 16 16 16 16 16 17 18 18 17 16 16 15 15 16 16 15 14 14 14 13 11 9 10 12 13 13 10 7 7 8 8 7 8 8 8 9 10 10 10 11 11 11 12 13 12 11 9 8 7 6 6 7 7 8 9 9 10 10 10 10 10 9
17 18 18 18 19 20 22 21 21 22 23 22 21 23 23 23 23 22 21 21 20 21 20 19 19 19 18 18 18 17 17 18 18 17 17 17 16 17 17 16 14 13 13 13 11 9 9 10 11 11 10 8 7 7 8 8 8 9 9 10 10 10 11 11 11 11 11 11 12 11 9 8 7 6 6 6 7 8 8 9 9 10 10 9 9 9
18 18 18 18 19 20 21 22 22 23 23 22 22 23 23 24 24 23 22 21 22 22 22 22 21 20 19 19 18 17 17 18 19 19 18 17 17 17 17 16 15 13 13 13 12 9 8 9 9 9 9 9 8 8 8 8 9 9 10 10 11 11 11 11 11 10 9 10 10 10 9 8 7 6 5 5 6 6 7 8 8 8 9 9 8 8
18 18 18 19 20 20 20 21 23 23 23 23 24 24 24 24 23 22 21 23 24 24 24 24 23 22 20 19 19 18 18 17 18 19 19 18 17 16 16 16 15 13 13 13 13 11 9 8 9 9 9 9 8 8 8 8 9 10 10 11 12 12 12 11 10 9 8 8 8 9 8 7 6 6 5 5 4 4 5 6 6 6 7 7 7 7
20 19 20 20 20 21 21 22 24 24 24 25 26 26 26 26 24 23 24 26 26 25 25 25 24 22 20 19 19 19 19 18 18 19 19 18 17 17 16 16 16 14 12 14 14 12 10 9 9 9 9 8 8 8 8 7 8 9 10 10 11 11 11 11 10 9 8 7 7 7 7 7 7 6 5 5 5 4 4 4 4 5 5 5 6 6
21 20 21 21 21 22 23 23 25 25 25 26 26 25 26 27 26 27 28 27 26 25 25 25 24 22 21 20 20 19 19 19 19 19 19 19 18 17 16 16 16 15 12 13 15 14 12 11 10 10 9 9 8 8 8 8 8 8 9 10 10 11 12 11 10 9 9 8 7 6 6 6 6 6 6 5 5 5 5 5 5 5 5 5 6 6
24 21 21 21 22 24 24 23 24 26 26 26 25 24 26 27 26 27 27 26 26 25 25 24 24 23 23 22 20 19 19 19 20 19 19 19 19 18 17 17 17 16 13 13 14 15 14 13 12 11 10 9 9 8 8 8 8 8 8 9 10 11 12 12 11 10 9 8 7 6 6 6 6 5 5 5 5 4 4 4 4 5 5 6 6 6
26 24 22 23 24 25 25 24 25 25 26 26 26 26 26 25 25 26 26 25 26 25 25 25 25 25 24 23 21 19 19 19 20 20 20 20 19 19 18 17 17 17 16 14 14 15 15 14 13 12 11 10 10 9 9 9 9 9 9 9 9 10 11 12 12 11 10 10 9 7 6 6 6 5 5 5 4 4 4 4 4 3 3 3 4 4
26 24 24 24 24 24 24 25 25 24 24 25 26 26 24 23 23 25 25 25 25 25 25 26 26 25 24 22 21 20 20 21 21 22 21 21 20 20 19 18 17 17 17 16 15 15 16 15 14 14 13 12 11 10 10 10 10 10 9 9 10 10 11 11 11 11 10 10 9 9 8 7 6 6 5 5 4 4 3 3 3 3 3 3 2 1
26 24 24 25 24 23 23 25 26 23 22 24 24 24 25 25 24 25 25 25 25 26 25 25 26 26 26 25 25 24 24 24 24 23 23 22 21 21 20 19 18 17 17 17 17 17 16 16 15 15 14 13 12 12 11 11 11 11 10 10 10 10 10 11 11 10 10 10 9 9 9 8 7 7 6 6 5 5 4 4 3 3 3 3 2 2
27 25 25 25 24 23 23 25 27 24 22 24 24 24 26 26 25 25 25 25 25 25 24 24 25 26 27 29 29 29 28 26 25 24 24 24 23 22 21 20 19 18 17 17 17 18 18 17 16 15 15 14 13 13 12 12 11 11 11 10 10 10 10 10 10 10 10 9 9 8 8 8 8 8 7 7 6 6 6 5 5 4 4 4 4 4
26 24 24 25 25 25 25 26 28 26 24 24 24 24 25 26 26 25 24 24 24 24 24 24 23 23 25 29 31 31 30 29 27 26 25 25 25 23 22 22 21 19 18 18 18 18 19 18 17 16 16 15 14 14 14 13 12 12 12 11 10 10 10 10 10 9 9 9 8 7 7 7 7 7 8 8 7 7 7 7 6 6 6 6 6 6
Wind_Direction
233 204 181 185 224 247 240 222 221 220 212 228 233 235 256 257 244 245 261 271 268 266 272 280 288 288 289 290 287 285 283 286 285 279 282 290 295 298 290 284 289 295 293 291 290 289 288 288 287 284 284 285 272 258 259 264 266 269 272 275 275 275 274 271 269 267 264 261 259 258 257 253 252 253 254 256 258 259 258 254 250 247 244 239 236 233
315 192 195 217 210 234 260 262 256 249 246 252 253 254 254 255 257 256 265 270 268 267 272 279 278 276 289 292 287 284 284 286 286 280 283 292 296 299 292 282 283 292 293 290 290 288 287 287 286 284 282 283 277 268 266 265 266 267 269 272 273 274 274 273 270 268 265 264 262 260 258 256 253 252 253 255 259 261 262 260 255 249 244 240 235 232
246 218 223 234 228 255 276 274 266 266 265 258 254 258 247 240 254 270 276 269 268 273 274 277 278 280 288 287 287 293 288 285 288 286 286 290 293 299 295 279 276 288 293 289 288 287 286 286 286 283 281 281 280 278 273 267 266 267 268 270 271 272 272 273 272 268 266 265 264 261 259 257 255 253 253 253 258 262 265 265 260 252 245 239 235 232
263 270 255 234 242 268 275 282 276 266 266 259 249 250 249 246 246 248 261 265 272 280 277 278 284 288 287 282 289 297 288 285 291 292 291 290 292 300 301 282 274 284 291 288 287 285 285 286 283 281 281 281 282 282 276 268 268 270 269 269 270 270 270 271 271 269 267 263 261 260 258 258 257 256 254 254 257 260 264 266 263 256 247 240 235 232
268 280 282 267 272 277 276 280 273 263 258 248 244 244 245 250 247 244 257 269 279 283 281 283 287 289 287 286 292 295 288 289 295 297 298 294 291 297 300 285 277 282 284 285 289 288 285 285 282 280 280 280 280 282 277 269 271 272 270 270 270 270 269 268 268 267 266 263 259 257 257 259 259 259 257 256 258 259 262 265 264 259 251 244 237 232
272 282 288 289 289 282 276 267 256 254 251 246 247 246 248 259 263 267 274 279 284 287 286 287 290 289 287 290 295 291 289 294 299 300 303 299 290 292 294 288 286 284 277 283 294 292 287 284 281 280 279 278 279 281 278 270 271 272 271 271 270 269 267 265 264 264 264 262 258 255 257 259 260 260 258 258 260 260 263 264 263 260 254 249 240 231
294 298 291 294 289 274 272 269 258 251 248 252 254 249 252 264 273 280 282 281 284 287 283 283 286 283 283 291 293 288 288 296 301 300 301 299 291 290 292 291 291 282 273 285 295 293 291 285 280 280 279 277 276 278 276 269 270 271 270 270 269 266 265 263 260 260 260 261 258 255 256 257 258 259 259 260 261 262 262 262 261 259 255 252 243 233
306 308 306 309 293 274 273 276 276 272 262 260 261 261 264 271 279 285 286 285 284 279 278 280 278 274 280 287 286 288 291 294 298 298 299 300 294 290 293 295 292 281 275 286 291 291 293 289 283 283 280 275 272 273 270 266 268 269 268 269 267 264 263 261 257 256 258 259 259 256 254 254 254 257 260 263 264 263 262 259 259 257 253 252 245 237
329 318 315 315 297 288 288 287 289 285 275 272 275 278 275 277 282 282 279 279 280 277 274 273 273 278 288 289 284 290 297 294 296 299 300 304 300 293 296 298 294 286 282 288 288 284 289 294 291 287 282 275 270 268 263 262 266 267 267 268 265 263 260 257 252 252 254 257 259 257 254 251 249 253 260 264 265 264 261 259 259 257 255 251 243 238
330 319 311 307 299 298 297 294 294 288 280 280 284 279 274 277 275 271 272 273 279 284 275 262 266 281 296 292 285 289 296 296 300 303 303 306 303 297 298 298 296 292 290 290 285 279 289 297 294 288 282 276 270 264 258 260 264 264 265 265 263 259 255 252 247 247 251 254 257 256 254 252 250 252 258 262 264 263 261 260 261 260 257 251 239 234
310 312 310 302 305 313 312 305 298 288 280 279 277 270 270 271 263 265 272 271 283 293 285 275 272 281 293 287 284 290 295 296 301 304 304 305 303 299 299 298 297 296 295 294 286 282 294 297 293 288 282 279 272 258 254 260 264 264 264 261 260 258 252 249 246 246 249 251 252 252 252 252 252 254 256 259 260 260 260 260 261 261 258 253 244 236
298 300 302 298 303 313 319 318 314 311 300 290 283 272 272 274 270 274 273 273 299 300 282 274 274 283 289 284 286 296 297 296 301 305 304 301 299 301 302 300 299 297 297 297 287 286 297 298 296 292 283 280 272 257 255 261 264 264 263 260 261 262 256 252 251 251 250 248 246 245 246 250 252 255 255 257 258 258 259 258 258 260 257 255 251 241
301 299 299 297 301 309 316 323 320 316 307 294 287 280 275 276 276 279 277 281 302 293 279 271 274 286 289 283 288 297 296 297 300 303 303 298 297 300 301 299 297 295 297 296 291 295 304 305 303 298 288 282 273 264 261 262 264 264 263 265 269 269 264 259 257 257 254 249 245 241 240 243 247 252 254 256 258 258 258 258 255 256 257 257 255 246
301 302 299 293 297 305 309 316 314 308 304 295 290 285 275 274 279 281 276 269 255 262 273 277 282 296 293 287 292 295 295 298 300 302 302 296 295 298 298 296 295 294 296 296 297 304 310 306 301 298 289 277 271 268 266 266 266 263 265 271 273 273 270 264 261 260 259 254 250 245 240 238 243 251 256 257 259 259 259 258 256 256 256 257 258 252
294 295 295 292 298 304 303 305 305 303 302 295 289 287 281 278 282 278 270 274 266 258 268 279 289 295 288 291 299 296 295 300 300 302 303 296 294 296 297 298 294 293 296 297 301 308 309 302 297 291 280 270 267 269 269 268 265 265 271 275 275 275 273 268 264 262 262 261 257 253 248 244 247 255 263 264 264 264 261 257 255 255 256 256 259 260
296 293 293 292 295 300 299 296 298 299 300 296 287 287 289 284 279 272 271 281 283 271 268 276 288 291 283 285 292 291 295 302 302 306 309 304 298 296 299 300 295 295 300 302 307 310 301 293 291 287 280 277 276 276 273 269 268 271 276 276 275 276 273 270 267 265 266 267 266 263 261 258 258 264 272 274 272 271 268 261 256 254 256 258 259 264
300 296 297 296 293 296 292 289 296 300 298 298 290 287 290 288 284 281 279 282 282 275 271 275 292 301 293 287 283 283 292 301 306 310 312 310 304 299 300 301 299 300 302 303 309 312 303 294 291 285 280 278 277 276 274 272 273 276 277 276 275 274 273 272 270 268 270 274 275 272 270 269 269 271 276 278 278 277 275 269 261 257 257 258 259 264
305 300 303 300 293 293 289 288 296 301 297 297 294 293 293 288 284 281 280 284 283 275 268 273 289 290 280 279 281 282 292 302 309 311 309 309 308 302 298 299 301 304 301 296 298 302 303 300 292 286 282 278 274 271 270 271 273 274 274 274 273 272 272 271 271 272 274 279 282 279 278 278 277 276 276 277 277 276 276 273 266 261 259 259 261 266
309 304 305 303 295 294 290 287 292 297 297 299 298 299 296 288 286 288 290 292 292 283 265 265 280 272 262 268 281 287 293 298 304 308 306 304 304 303 300 297 297 300 300 296 294 293 298 302 300 296 290 284 279 275 272 272 272 273 273 273 272 271 271 271 272 274 276 281 285 284 284 283 282 279 276 275 275 274 274 273 270 265 262 261 262 267
313 306 304 304 299 295 291 287 291 295 296 301 302 302 301 293 292 300 304 299 297 290 276 264 264 270 266 268 278 286 293 293 293 297 300 297 296 298 299 298 297 295 295 295 297 295 295 297 298 295 292 288 284 280 277 276 275 275 275 274 272 271 271 273 274 275 277 279 283 286 286 284 283 280 275 273 272 273 272 272 272 269 265 264 264 267
315 311 306 305 302 296 291 289 295 298 295 297 300 301 301 297 294 297 299 294 292 285 280 274 260 268 272 272 278 288 294 291 286 284 288 292 292 292 294 298 301 302 299 297 297 297 297 295 291 287 286 285 283 281 279 278 277 276 275 274 273 272 273 274 274 275 277 278 280 283 284 283 282 279 275 272 269 270 271 271 273 272 268 267 266 267
313 314 310 306 302 296 293 292 293 293 292 293 299 301 299 298 297 296 293 288 288 284 280 273 258 268 280 281 282 290 294 292 289 281 279 282 286 290 296 299 302 305 303 300 299 299 300 299 294 288 284 281 279 279 279 278 278 278 278 277 276 275 274 274 274 275 276 277 279 280 280 281 280 277 274 271 269 269 270 271 273 274 273 270 267 266
311 315 315 311 306 300 295 294 291 289 288 289 296 303 301 301 300 296 293 289 288 286 282 274 263 270 282 283 281 286 289 291 292 287 283 282 283 289 298 302 304 303 300 299 299 297 295 294 292 289 287 284 282 281 281 281 280 280 280 280 279 278 276 275 275 274 274 275 276 275 275 275 275 274 271 268 268 269 269 271 274 276 276 274 270 265
311 314 315 313 311 301 294 297 298 293 290 289 295 303 306 307 303 296 294 292 289 286 281 279 275 276 282 284 283 284 286 290 292 291 291 290 288 292 299 303 306 305 299 298 300 299 297 294 291 289 288 287 286 285 284 283 282 281 281 280 279 277 276 275 273 272 272 271 271 270 269 268 268 268 267 266 267 269 271 271 272 275 277 275 273 267
315 315 312 309 308 301 296 303 307 301 296 293 297 302 305 308 305 300 297 294 290 284 278 277 274 273 280 286 283 282 285 290 293 293 292 292 292 296 301 303 305 306 303 301 301 300 299 296 295 295 294 293 291 289 287 285 283 280 279 277 276 275 273 272 271 269 267 266 264 264 262 261 261 261 262 263 265 268 271 272 271 273 275 274 273 268
321 318 312 306 305 302 299 301 306 304 298 293 294 297 301 304 305 303 299 295 293 287 280 277 271 268 274 279 281 284 287 289 291 292 292 291 292 295 299 300 301 304 305 303 302 302 299 299 300 300 300 299 297 296 294 291 288 283 279 275 273 271 269 268 268 268 266 263 261 260 259 257 257 257 258 261 264 267 269 271 271 271 273 273 271 270
325 322 317 311 307 305 300 299 304 306 301 297 296 296 298 300 302 304 300 298 299 292 284 281 276 270 269 271 278 285 289 292 292 292 292 292 293 295 299 301 303 305 306 306 306 307 306 306 307 306 305 304 303 302 299 297 293 289 283 278 273 269 267 266 266 267 266 263 260 259 258 257 257 257 258 261 265 268 269 271 272 271 271 271 268 267
323 321 318 315 311 310 306 301 303 304 301 298 295 294 296 297 299 306 304 301 302 298 288 282 277 272 269 272 277 282 286 291 292 292 294 295 294 293 295 298 301 304 307 308 310 312 311 311 310 309 308 307 305 303 301 299 295 291 286 282 276 270 267 266 265 265 264 261 259 259 258 259 260 261 262 264 266 267 269 270 271 271 270 269 267 263
319 319 318 315 314 313 309 302 301 303 303 301 296 293 295 295 298 303 302 299 301 299 289 283 278 272 270 273 277 279 283 286 290 293 296 296 296 297 298 300 303 306 309 310 311 313 313 311 311 311 310 308 306 304 302 300 296 291 288 285 279 272 268 266 265 264 262 260 259 261 262 263 264 265 264 265 266 266 268 269 270 270 269 269 267 262
317 318 316 315 316 316 311 305 304 309 309 306 302 298 295 295 298 300 301 303 304 300 290 284 282 278 276 275 278 281 283 285 288 292 294 295 296 299 301 304 307 309 310 310 311 315 316 313 314 313 311 309 309 308 307 304 299 294 289 286 282 274 269 266 264 262 261 261 263 265 267 266 265 265 264 264 265 267 268 269 269 270 269 268 268 265
317 316 313 314 319 320 316 312 310 313 313 309 305 302 298 298 299 300 306 311 310 304 295 288 284 284 283 281 281 285 288 289 290 292 293 295 296 299 301 303 304 306 307 309 313 320 321 318 317 317 314 313 315 315 313 309 303 298 293 289 282 274 269 266 264 263 264 265 267 267 266 265 264 264 265 266 267 268 268 269 268 269 269 269 269 267
316 315 312 313 318 319 316 314 312 312 313 311 307 303 302 303 300 299 305 309 308 304 296 288 285 283 282 281 282 286 290 292 294 295 295 296 297 298 299 299 301 305 307 312 318 324 324 321 323 325 321 320 322 322 318 314 308 303 298 291 283 277 274 270 268 269 268 267 266 265 265 266 268 269 269 270 270 270 269 268 268 268 269 269 270 268
316 315 315 314 314 314 313 312 311 311 312 311 308 304 304 306 302 300 303 307 308 305 298 291 285 280 277 278 282 286 289 293 296 298 300 300 301 302 299 297 302 306 308 315 321 324 326 329 332 333 329 328 329 326 322 318 314 310 305 298 293 288 284 279 273 270 269 268 267 268 270 271 271 270 270 270 271 271 270 269 268 268 269 270 271 269
314 313 314 313 310 309 310 310 309 309 311 313 311 307 307 311 308 304 304 307 309 306 301 296 290 285 281 280 283 284 287 290 291 293 296 298 301 304 302 300 303 305 308 316 322 323 329 335 336 336 334 331 330 327 326 325 321 319 315 310 306 299 291 286 280 275 273 273 272 272 272 271 270 269 269 269 269 270 270 269 269 269 269 269 270 269
315 312 311 311 310 310 309 307 306 308 312 312 308 306 309 311 309 305 304 306 308 307 304 298 294 291 289 287 286 286 287 288 288 289 291 293 298 301 299 299 302 303 307 314 319 323 332 337 337 337 336 331 330 331 332 329 326 327 328 324 317 307 299 294 289 286 284 282 279 277 275 273 271 269 268 269 269 269 268 269 269 269 269 269 268 268
315 315 311 308 307 307 305 304 305 307 309 306 303 303 307 308 308 309 308 307 307 308 305 300 297 294 293 291 289 288 288 288 287 288 290 292 294 294 293 295 299 301 304 310 316 326 336 337 338 339 334 329 332 334 332 330 330 334 335 329 323 316 312 309 307 306 302 298 293 288 282 278 274 271 268 267 266 265 266 267 268 269 270 270 268 266
311 314 310 306 307 305 303 303 305 304 304 306 306 305 305 304 305 309 308 306 308 311 309 304 298 294 292 290 289 288 288 288 287 288 291 292 293 290 289 294 300 303 306 310 316 333 342 339 340 340 333 330 333 332 330 329 331 333 332 328 326 327 329 331 329 326 321 316 310 301 292 284 277 271 268 266 265 265 267 268 270 272 273 273 272 268
310 309 306 307 310 308 304 303 303 301 301 303 304 303 302 301 301 303 302 302 307 309 306 301 296 293 292 290 289 289 288 288 290 291 292 293 291 287 286 292 299 302 304 306 315 331 339 338 341 342 335 332 330 325 325 327 326 328 327 328 331 335 339 341 340 337 335 332 326 318 307 298 288 278 271 268 268 268 269 271 275 278 280 281 280 275
308 303 302 306 309 308 304 303 302 300 300 302 302 302 301 298 297 298 298 299 303 305 301 298 296 295 295 293 292 292 291 290 291 292 293 294 291 287 288 292 295 297 296 297 306 323 331 335 340 343 338 332 326 320 320 321 319 319 322 325 329 335 340 343 343 344 344 343 339 332 327 322 312 296 281 273 270 268 270 274 277 280 286 289 289 283
302 299 299 303 305 305 303 302 301 299 298 299 302 302 301 297 295 294 294 296 300 300 298 297 296 296 297 297 295 293 291 291 291 291 292 293 291 290 290 291 292 292 291 292 298 314 325 328 334 341 342 333 319 315 316 316 312 313 317 322 325 331 338 342 343 345 348 349 347 342 339 338 332 314 292 277 270 268 268 270 275 280 285 290 291 287
304 301 299 300 301 301 300 301 301 298 297 298 300 301 300 297 294 292 293 295 294 293 294 297 298 296 296 296 296 293 290 290 290 290 291 292 292 293 291 288 288 289 288 287 292 305 316 319 325 339 346 336 317 311 315 314 310 309 313 317 322 328 334 336 337 341 346 351 352 349 343 341 339 328 307 284 272 268 267 268 273 278 281 284 286 284
308 306 302 299 298 297 297 299 298 296 296 298 297 295 295 295 293 291 291 290 288 288 292 295 295 294 293 294 295 294 291 289 289 290 291 292 293 294 291 286 284 286 287 286 287 294 303 309 318 333 344 340 324 313 312 311 309 309 311 315 320 324 327 328 328 332 340 349 353 354 351 345 338 329 316 297 278 269 266 266 269 273 276 278 278 277
311 310 304 299 296 295 294 294 293 295 298 298 296 294 294 296 294 292 291 289 288 288 290 291 291 291 292 293 295 294 292 290 291 291 292 293 294 295 292 285 280 282 287 286 284 285 289 299 313 323 334 339 334 325 318 312 308 309 311 313 317 319 320 321 323 325 331 340 348 354 358 357 347 332 318 304 289 274 268 267 268 269 272 272 272 272
310 310 306 300 296 295 293 291 294 299 299 297 296 296 294 294 291 290 292 291 289 288 288 289 288 288 288 290 293 294 294 293 293 293 293 293 294 295 293 287 280 280 285 285 283 283 286 293 303 310 316 325 331 331 329 324 319 318 318 318 319 318 317 318 320 322 323 326 333 343 354 3 3 353 337 320 304 292 282 277 273 273 271 268 265 265
305 308 308 303 298 297 296 293 295 299 298 295 295 294 293 291 288 287 290 291 288 286 286 285 284 284 286 289 290 291 293 295 296 295 293 293 294 295 294 289 282 278 280 283 281 279 281 285 290 295 302 309 316 322 327 329 329 329 330 329 326 323 320 317 316 315 315 316 319 325 334 348 359 2 358 348 331 312 295 284 277 271 265 261 257 256
306 312 313 307 302 301 300 296 295 297 297 296 295 292 291 290 288 286 287 288 287 285 282 280 280 281 281 283 287 289 290 292 294 295 293 292 293 293 293 290 284 278 275 277 277 276 276 278 281 285 291 297 303 310 317 321 325 329 333 335 333 331 327 322 317 312 308 306 307 311 317 325 332 341 350 356 358 354 340 318 299 282 267 258 250 246
304 313 315 309 305 304 303 301 298 296 296 297 296 293 290 289 287 285 284 285 286 284 279 276 278 278 275 273 277 284 288 292 295 295 294 292 292 291 291 289 285 279 274 271 270 269 268 270 272 277 282 288 294 300 306 311 317 322 327 331 335 337 335 331 325 318 310 302 299 299 302 306 311 315 320 329 343 358 5 4 357 343 318 285 262 247
302 310 312 309 309 309 306 302 297 295 295 294 293 290 288 287 284 281 280 281 282 282 279 277 275 274 273 271 271 276 284 290 293 294 294 293 291 289 288 286 284 280 276 274 272 269 266 266 268 273 278 283 286 290 295 301 306 311 318 324 330 336 340 340 335 329 319 308 300 295 294 293 296 300 304 310 316 325 337 346 353 358 0 357 350 320
302 309 311 309 311 312 307 300 296 296 293 289 286 285 286 285 281 277 277 278 277 278 280 279 275 272 272 272 271 273 278 284 286 289 291 291 289 287 285 284 281 278 274 273 274 273 270 267 267 269 272 276 279 282 285 290 295 300 307 314 320 328 337 341 340 337 330 322 311 301 294 291 291 292 295 299 302 304 308 312 317 322 327 332 338 343
302 309 311 311 311 311 305 298 296 296 292 286 284 283 283 282 280 277 277 276 274 274 275 276 275 273 272 271 270 271 275 279 281 284 287 288 287 284 282 280 279 276 272 270 270 272 271 268 266 267 268 270 273 277 280 283 287 290 295 302 309 316 325 332 337 339 337 331 324 315 305 297 293 291 291 293 295 297 298 299 300 304 306 309 310 308
303 308 309 309 309 309 305 299 297 297 293 286 284 283 282 283 282 279 276 275 273 273 273 273 274 275 274 272 270 271 273 274 275 278 283 284 283 282 279 277 276 275 272 268 266 267 269 267 264 265 266 268 270 273 276 279 282 284 286 289 295 303 309 316 324 332 334 332 329 325 320 313 305 298 293 290 289 291 293 295 296 297 297 297 297 296
Height
5780 5780 5781 5782 5782 5782 5782 5782 5783 5783 5784 5785 5785 5786 5786 5786 5787 5785 5784 5783 5783 5784 5784 5783 5783 5782 5779 5778 5778 5777 5776 5776 5775 5774 5773 5772 5771 5770 5766 5764 5765 5766 5766 5765 5765 5764 5764 5764 5764 5764 5764 5764 5764 5764 5766 5766 5766 5767 5767 5767 5767 5767 5768 5768 5769 5769 5769 5770 5770 5771 5771 5771 5772 5773 5773 5773 5773 5774 5775 5777 5778 5778 5780 5781 5783 5786
5779 5780 5780 5781 5781 5781 5781 5782 5782 5783 5783 5784 5784 5784 5784 5785 5784 5783 5783 5782 5781 5782 5782 5781 5782 5782 5779 5776 5775 5775 5775 5773 5772 5771 5771 5770 5769 5768 5765 5762 5762 5764 5764 5762 5763 5762 5762 5762 5762 5762 5761 5762 5762 5763 5764 5764 5764 5765 5765 5765 5765 5765 5766 5766 5767 5767 5768 5768 5768 5768 5769 5769 5770 5770 5771 5771 5771 5771 5772 5773 5774 5775 5777 5779 5780 5783
5779 5779 5780 5780 5780 5781 5781 5781 5781 5782 5782 5782 5783 5782 5782 5782 5782 5782 5781 5779 5779 5781 5780 5780 5780 5780 5779 5775 5772 5773 5773 5771 5770 5770 5769 5768 5767 5766 5765 5762 5760 5762 5762 5760 5760 5760 5760 5761 5760 5760 5759 5760 5760 5761 5762 5762 5762 5762 5763 5763 5762 5763 5763 5764 5765 5765 5766 5766 5766 5766 5767 5767 5767 5768 5768 5769 5769 5769 5769 5770 5771 5772 5774 5776 5777 5779
5778 5779 5780 5780 5780 5780 5780 5780 5780 5780 5780 5780 5780 5780 5780 5780 5780 5780 5779 5778 5779 5779 5779 5778 5778 5778 5778 5774 5771 5771 5770 5768 5768 5768 5767 5765 5764 5763 5763 5761 5759 5759 5759 5758 5758 5758 5758 5758 5758 5757 5757 5758 5758 5759 5760 5760 5760 5760 5760 5760 5760 5760 5761 5762 5762 5763 5763 5764 5764 5764 5764 5765 5765 5766 5766 5766 5766 5767 5767 5767 5768 5769 5771 5773 5775 5777
5778 5779 5779 5779 5779 5779 5779 5779 5779 5778 5778 5779 5778 5778 5778 5777 5777 5778 5778 5777 5778 5778 5777 5776 5776 5776 5775 5772 5770 5769 5767 5767 5766 5766 5765 5763 5762 5762 5760 5760 5757 5756 5756 5756 5755 5755 5756 5756 5756 5755 5755 5756 5756 5757 5758 5758 5757 5757 5758 5758 5758 5758 5759 5760 5760 5761 5761 5762 5762 5762 5762 5763 5763 5763 5763 5764 5764 5764 5764 5765 5765 5765 5767 5769 5772 5775
5778 5778 5778 5778 5778 5778 5778 5778 5777 5777 5777 5777 5777 5776 5776 5776 5776 5777 5777 5776 5776 5776 5775 5774 5774 5773 5772 5770 5768 5766 5764 5765 5765 5763 5763 5761 5760 5759 5758 5757 5754 5753 5753 5753 5752 5752 5752 5753 5753 5753 5753 5754 5754 5755 5755 5755 5755 5755 5756 5756 5756 5756 5756 5757 5758 5758 5759 5759 5760 5760 5760 5760 5760 5760 5760 5761 5761 5762 5762 5763 5763 5763 5764 5766 5768 5772
5777 5777 5777 5777 5777 5777 5777 5776 5775 5775 5776 5775 5775 5775 5775 5775 5775 5776 5775 5775 5775 5775 5774 5772 5772 5771 5770 5768 5766 5764 5763 5763 5762 5761 5760 5759 5757 5756 5755 5754 5752 5750 5751 5750 5750 5749 5750 5750 5750 5751 5751 5751 5752 5753 5753 5753 5753 5753 5753 5754 5754 5754 5754 5755 5755 5756 5756 5757 5757 5758 5758 5758 5758 5758 5758 5758 5759 5760 5761 5761 5761 5761 5762 5764 5765 5768
5777 5777 5776 5776 5776 5775 5775 5775 5775 5775 5775 5774 5773 5773 5774 5774 5774 5774 5774 5774 5773 5773 5772 5771 5770 5768 5768 5767 5764 5762 5762 5761 5760 5759 5758 5757 5755 5754 5753 5751 5750 5749 5749 5748 5747 5748 5748 5748 5748 5748 5749 5749 5750 5750 5751 5751 5751 5751 5751 5751 5752 5752 5752 5753 5753 5753 5754 5754 5755 5756 5756 5756 5756 5756 5756 5756 5757 5757 5758 5759 5759 5760 5760 5761 5763 5765
5777 5776 5776 5776 5775 5774 5774 5774 5774 5774 5773 5772 5772 5772 5772 5772 5772 5772 5772 5772 5772 5771 5771 5770 5768 5766 5766 5766 5763 5761 5760 5759 5759 5758 5756 5754 5753 5752 5750 5748 5748 5748 5747 5746 5745 5745 5746 5746 5746 5746 5746 5747 5747 5748 5748 5749 5749 5749 5749 5749 5750 5750 5750 5750 5751 5751 5752 5752 5753 5753 5754 5754 5754 5754 5754 5754 5754 5755 5756 5756 5757 5758 5758 5759 5760 5762
5776 5776 5775 5775 5775 5774 5773 5773 5773 5772 5772 5771 5771 5771 5770 5770 5770 5770 5770 5770 5770 5769 5769 5768 5767 5765 5765 5764 5762 5761 5759 5757 5757 5756 5754 5752 5751 5750 5749 5747 5746 5746 5745 5744 5743 5744 5744 5744 5744 5744 5744 5744 5745 5746 5746 5746 5747 5747 5747 5748 5748 5748 5748 5748 5749 5749 5750 5750 5750 5751 5751 5751 5752 5752 5752 5752 5752 5753 5753 5754 5755 5756 5756 5757 5758 5759
5775 5775 5774 5774 5774 5774 5773 5772 5771 5771 5771 5770 5770 5769 5769 5769 5769 5769 5769 5769 5768 5768 5767 5766 5765 5764 5765 5763 5760 5760 5758 5755 5754 5753 5752 5750 5750 5749 5748 5746 5745 5744 5743 5742 5741 5742 5743 5742 5742 5742 5742 5742 5743 5744 5744 5744 5745 5745 5745 5746 5746 5746 5746 5747 5747 5747 5747 5748 5748 5749 5749 5749 5749 5750 5750 5750 5750 5750 5751 5752 5752 5753 5754 5755 5755 5756
5774 5774 5773 5773 5773 5772 5772 5771 5770 5770 5770 5769 5769 5768 5768 5768 5767 5767 5768 5767 5767 5767 5765 5764 5763 5763 5763 5761 5758 5758 5757 5754 5753 5751 5749 5749 5749 5748 5746 5745 5743 5742 5742 5741 5740 5740 5741 5740 5740 5740 5740 5741 5741 5741 5742 5743 5743 5744 5744 5744 5744 5744 5744 5744 5745 5745 5745 5745 5746 5746 5746 5747 5747 5747 5747 5747 5747 5747 5748 5749 5749 5750 5751 5752 5752 5753
5773 5773 5772 5772 5772 5771 5771 5770 5769 5769 5769 5768 5768 5767 5767 5766 5765 5766 5766 5766 5767 5766 5764 5763 5762 5762 5761 5758 5758 5757 5755 5753 5751 5750 5748 5746 5746 5746 5745 5743 5742 5741 5740 5739 5738 5738 5739 5739 5738 5738 5739 5739 5739 5739 5740 5741 5741 5742 5741 5742 5742 5742 5742 5742 5743 5743 5743 5743 5743 5743 5744 5744 5744 5744 5744 5744 5745 5745 5745 5746 5746 5747 5748 5749 5750 5750
5772 5771 5771 5770 5770 5770 5769 5769 5768 5768 5768 5767 5766 5766 5765 5764 5764 5765 5765 5765 5765 5764 5762 5762 5761 5761 5759 5756 5756 5756 5753 5752 5750 5749 5748 5745 5744 5744 5743 5742 5741 5740 5739 5738 5737 5737 5738 5738 5737 5737 5737 5737 5737 5737 5738 5739 5739 5739 5739 5739 5739 5740 5740 5740 5740 5740 5740 5740 5740 5741 5741 5742 5742 5742 5742 5742 5742 5742 5743 5743 5744 5744 5745 5746 5747 5748
5771 5770 5769 5769 5769 5769 5768 5768 5768 5767 5766 5766 5765 5764 5764 5763 5763 5763 5763 5763 5763 5763 5762 5761 5760 5760 5758 5756 5755 5754 5752 5750 5748 5747 5746 5745 5743 5742 5741 5740 5739 5739 5738 5737 5736 5736 5736 5736 5735 5735 5735 5735 5735 5736 5736 5737 5737 5737 5737 5737 5737 5737 5737 5737 5738 5738 5738 5738 5738 5738 5738 5739 5739 5739 5739 5740 5740 5740 5740 5740 5741 5742 5742 5743 5744 5745
5770 5769 5769 5768 5768 5768 5767 5766 5766 5766 5765 5764 5764 5763 5763 5762 5762 5762 5762 5761 5761 5762 5761 5760 5759 5758 5757 5755 5754 5752 5750 5749 5747 5745 5744 5743 5741 5741 5739 5738 5737 5737 5737 5736 5735 5735 5734 5734 5734 5733 5733 5733 5733 5734 5734 5735 5735 5735 5735 5735 5734 5735 5735 5735 5735 5735 5735 5735 5735 5735 5735 5736 5736 5736 5737 5737 5737 5737 5737 5737 5738 5738 5739 5740 5741 5742
5769 5768 5768 5768 5766 5766 5766 5765 5765 5765 5764 5763 5763 5762 5762 5761 5761 5761 5760 5760 5760 5760 5760 5760 5759 5757 5755 5753 5752 5751 5749 5747 5746 5744 5742 5741 5740 5739 5737 5736 5735 5735 5735 5734 5734 5734 5732 5732 5732 5732 5732 5732 5732 5732 5733 5733 5733 5733 5732 5732 5732 5732 5732 5732 5732 5732 5732 5732 5732 5732 5733 5733 5733 5734 5734 5734 5734 5734 5735 5735 5735 5735 5736 5737 5738 5738
5769 5767 5767 5767 5766 5765 5765 5764 5764 5763 5762 5762 5761 5761 5760 5759 5759 5759 5759 5758 5758 5759 5758 5758 5759 5758 5754 5751 5749 5749 5748 5746 5745 5743 5741 5740 5739 5737 5736 5734 5734 5733 5733 5733 5733 5732 5732 5731 5731 5731 5730 5730 5730 5730 5730 5730 5730 5730 5730 5730 5729 5729 5729 5729 5729 5729 5730 5729 5729 5730 5730 5730 5730 5731 5731 5731 5731 5731 5732 5732 5732 5732 5733 5733 5735 5735
5768 5767 5766 5765 5764 5764 5763 5763 5762 5762 5761 5760 5760 5759 5759 5758 5757 5757 5757 5757 5756 5757 5756 5757 5757 5755 5752 5750 5747 5747 5747 5746 5744 5743 5741 5739 5738 5736 5735 5733 5733 5733 5732 5731 5730 5730 5730 5730 5730 5729 5729 5728 5728 5728 5728 5728 5727 5727 5727 5727 5727 5727 5726 5726 5726 5727 5727 5727 5727 5727 5727 5727 5727 5728 5728 5728 5728 5729 5729 5729 5729 5729 5729 5730 5731 5732
5767 5766 5764 5764 5763 5762 5762 5761 5761 5760 5760 5759 5758 5758 5758 5757 5756 5756 5756 5755 5754 5755 5754 5755 5755 5751 5749 5749 5747 5746 5746 5745 5743 5742 5740 5738 5737 5735 5734 5732 5732 5732 5731 5730 5728 5728 5728 5729 5728 5727 5727 5726 5726 5726 5725 5725 5724 5724 5724 5724 5724 5724 5723 5723 5723 5723 5724 5724 5725 5724 5724 5724 5725 5725 5725 5726 5726 5726 5726 5726 5726 5726 5726 5727 5728 5729
5765 5765 5763 5762 5762 5761 5760 5760 5760 5759 5759 5758 5758 5757 5756 5756 5755 5755 5755 5753 5753 5753 5752 5753 5752 5748 5747 5748 5746 5745 5745 5743 5742 5741 5740 5738 5736 5734 5733 5732 5731 5731 5730 5729 5728 5726 5726 5726 5726 5725 5724 5724 5723 5723 5722 5722 5721 5721 5720 5720 5720 5720 5720 5720 5720 5720 5721 5721 5722 5722 5722 5722 5722 5722 5722 5723 5723 5723 5723 5723 5723 5723 5723 5724 5724 5725
5764 5763 5762 5761 5761 5759 5758 5758 5758 5758 5757 5757 5756 5756 5755 5755 5754 5754 5753 5752 5752 5751 5750 5750 5750 5747 5746 5746 5744 5743 5743 5741 5740 5740 5739 5737 5735 5733 5732 5731 5731 5730 5729 5728 5727 5725 5724 5724 5724 5723 5722 5721 5720 5720 5719 5718 5717 5717 5716 5716 5716 5716 5716 5716 5716 5717 5717 5718 5718 5719 5719 5719 5719 5719 5720 5720 5720 5720 5721 5721 5721 5721 5721 5721 5721 5722
5763 5762 5761 5761 5759 5758 5756 5756 5756 5756 5756 5755 5755 5755 5754 5754 5753 5752 5752 5751 5751 5750 5749 5748 5747 5745 5745 5744 5743 5742 5741 5740 5739 5737 5737 5736 5734 5732 5731 5730 5730 5729 5728 5726 5725 5725 5723 5723 5721 5720 5719 5718 5717 5716 5715 5714 5713 5713 5712 5712 5711 5712 5712 5712 5713 5713 5713 5714 5714 5715 5716 5716 5716 5716 5716 5717 5717 5718 5718 5718 5718 5718 5719 5718 5719 5719
5762 5761 5760 5759 5758 5757 5755 5755 5755 5755 5755 5754 5754 5753 5753 5752 5752 5751 5750 5749 5749 5749 5747 5747 5746 5744 5743 5742 5741 5740 5739 5739 5738 5737 5735 5734 5732 5731 5730 5729 5728 5728 5727 5725 5724 5723 5722 5721 5719 5718 5717 5715 5714 5713 5712 5711 5710 5709 5709 5708 5708 5708 5708 5709 5709 5709 5710 5710 5711 5711 5712 5713 5713 5713 5713 5714 5714 5715 5715 5716 5715 5715 5716 5716 5716 5716
5761 5760 5759 5758 5757 5756 5755 5754 5754 5754 5753 5753 5752 5751 5751 5751 5750 5749 5748 5748 5747 5747 5746 5745 5744 5742 5741 5741 5740 5738 5737 5737 5737 5736 5734 5733 5731 5730 5729 5728 5727 5726 5725 5724 5723 5721 5720 5718 5716 5715 5714 5712 5711 5709 5708 5707 5706 5705 5705 5704 5704 5704 5705 5705 5705 5705 5706 5706 5707 5708 5709 5709 5710 5710 5710 5711 5711 5712 5712 5713 5713 5713 5713 5713 5713 5713
5760 5759 5758 5757 5756 5755 5754 5753 5752 5753 5752 5751 5750 5750 5750 5749 5749 5748 5747 5746 5745 5745 5744 5744 5743 5741 5740 5739 5738 5737 5736 5735 5735 5734 5733 5732 5730 5729 5729 5728 5726 5724 5723 5722 5721 5719 5718 5716 5714 5712 5711 5709 5708 5706 5705 5703 5702 5701 5701 5700 5700 5701 5701 5702 5702 5702 5703 5703 5704 5704 5705 5706 5706 5707 5707 5708 5708 5709 5709 5709 5710 5710 5710 5711 5711 5711
5759 5758 5757 5756 5755 5754 5753 5752 5751 5751 5750 5749 5749 5748 5748 5748 5747 5746 5745 5744 5744 5743 5743 5742 5741 5740 5739 5738 5737 5736 5734 5733 5732 5732 5731 5731 5730 5729 5727 5726 5725 5723 5722 5720 5719 5717 5715 5714 5712 5710 5708 5707 5705 5703 5701 5700 5699 5698 5697 5697 5697 5697 5698 5698 5699 5699 5700 5700 5701 5702 5702 5703 5703 5704 5704 5705 5705 5706 5706 5706 5707 5707 5707 5708 5708 5708
5758 5757 5756 5755 5754 5753 5752 5751 5750 5749 5749 5748 5747 5746 5746 5746 5745 5745 5744 5742 5742 5741 5741 5740 5739 5738 5738 5737 5735 5734 5733 5732 5731 5730 5730 5729 5729 5728 5726 5725 5723 5722 5720 5718 5717 5715 5713 5711 5710 5708 5706 5704 5702 5701 5699 5697 5696 5695 5694 5694 5694 5694 5695 5695 5696 5697 5697 5698 5698 5699 5699 5700 5700 5701 5701 5702 5702 5702 5703 5703 5704 5704 5704 5704 5705 5705
5757 5756 5755 5754 5753 5752 5751 5750 5749 5748 5747 5747 5746 5745 5745 5744 5743 5743 5742 5741 5740 5739 5739 5738 5737 5736 5736 5735 5733 5732 5731 5730 5729 5729 5728 5727 5726 5725 5724 5723 5721 5720 5718 5717 5715 5714 5712 5710 5708 5706 5704 5702 5700 5698 5697 5695 5694 5693 5692 5691 5691 5692 5692 5693 5694 5694 5695 5695 5696 5696 5697 5697 5698 5698 5698 5699 5699 5699 5700 5700 5700 5701 5701 5701 5701 5702
5756 5755 5754 5752 5752 5751 5750 5748 5747 5747 5746 5745 5744 5744 5743 5742 5741 5741 5740 5739 5738 5737 5736 5736 5735 5734 5733 5732 5731 5730 5729 5728 5728 5728 5727 5726 5725 5724 5723 5721 5720 5718 5717 5715 5714 5712 5711 5709 5707 5705 5702 5700 5698 5696 5695 5693 5692 5691 5690 5690 5689 5690 5690 5691 5692 5692 5693 5693 5694 5694 5694 5695 5695 5695 5696 5696 5696 5696 5696 5697 5697 5697 5698 5698 5698 5699
5754 5753 5752 5751 5750 5749 5748 5746 5746 5745 5744 5743 5742 5742 5741 5740 5739 5739 5738 5737 5736 5735 5734 5733 5733 5732 5731 5730 5729 5728 5728 5727 5726 5726 5725 5724 5723 5722 5721 5720 5719 5717 5716 5714 5712 5711 5709 5707 5705 5703 5701 5698 5696 5695 5693 5692 5691 5690 5689 5689 5688 5689 5689 5690 5690 5691 5691 5691 5691 5692 5692 5692 5693 5693 5693 5693 5693 5693 5693 5694 5694 5694 5695 5695 5695 5695
5753 5752 5750 5749 5748 5748 5746 5745 5744 5743 5742 5741 5741 5740 5739 5739 5738 5737 5736 5735 5734 5733 5732 5731 5731 5730 5729 5728 5727 5727 5726 5725 5724 5723 5723 5722 5722 5721 5720 5719 5717 5716 5714 5713 5711 5709 5708 5706 5704 5701 5699 5697 5695 5694 5692 5691 5690 5689 5688 5688 5688 5688 5688 5689 5689 5689 5689 5690 5690 5690 5690 5690 5690 5690 5690 5691 5691 5691 5691 5691 5691 5691 5692 5692 5692 5692
5752 5750 5749 5748 5747 5746 5745 5744 5743 5742 5740 5740 5739 5738 5737 5737 5736 5736 5735 5734 5733 5732 5731 5730 5729 5729 5728 5727 5726 5725 5724 5724 5723 5722 5721 5720 5719 5719 5718 5717 5716 5715 5713 5712 5710 5708 5706 5704 5702 5700 5697 5696 5694 5693 5692 5691 5690 5689 5688 5688 5688 5688 5688 5688 5688 5688 5688 5688 5688 5688 5688 5688 5688 5688 5688 5688 5688 5688 5688 5688 5688 5688 5689 5689 5689 5689
5751 5749 5748 5746 5745 5745 5744 5742 5741 5740 5739 5738 5737 5737 5736 5736 5735 5734 5733 5732 5732 5730 5729 5728 5727 5727 5726 5725 5725 5724 5723 5722 5722 5721 5719 5718 5717 5717 5716 5715 5714 5713 5712 5711 5709 5707 5705 5703 5700 5698 5697 5695 5694 5693 5692 5691 5690 5689 5688 5688 5688 5687 5687 5687 5687 5687 5687 5687 5686 5686 5686 5686 5685 5685 5685 5685 5685 5685 5685 5685 5685 5686 5686 5686 5686 5686
5750 5748 5747 5745 5744 5743 5742 5741 5739 5739 5738 5737 5736 5735 5735 5734 5733 5732 5731 5731 5730 5729 5728 5727 5726 5725 5725 5724 5723 5722 5722 5721 5720 5719 5718 5717 5716 5715 5714 5713 5713 5712 5711 5710 5709 5706 5704 5702 5700 5698 5696 5695 5694 5693 5692 5691 5690 5689 5689 5688 5688 5687 5687 5687 5686 5685 5685 5685 5684 5684 5683 5683 5682 5682 5682 5682 5682 5682 5682 5682 5682 5683 5683 5683 5683 5683
5749 5747 5746 5744 5743 5742 5741 5740 5738 5737 5736 5735 5735 5735 5734 5733 5732 5731 5730 5729 5729 5728 5727 5726 5725 5724 5724 5723 5722 5721 5720 5719 5718 5717 5717 5716 5715 5714 5713 5712 5711 5711 5710 5709 5708 5706 5703 5701 5699 5697 5696 5695 5694 5693 5692 5691 5690 5690 5689 5688 5688 5687 5686 5685 5685 5684 5683 5682 5682 5681 5680 5680 5679 5679 5679 5679 5679 5679 5679 5679 5680 5680 5680 5680 5681 5680
5748 5746 5745 5743 5742 5741 5740 5739 5737 5736 5734 5734 5734 5733 5732 5732 5731 5729 5729 5728 5727 5727 5726 5725 5724 5723 5723 5722 5721 5720 5719 5717 5716 5715 5715 5714 5713 5713 5712 5711 5710 5709 5708 5707 5706 5704 5703 5701 5699 5697 5696 5695 5694 5693 5692 5691 5690 5690 5689 5688 5687 5686 5685 5684 5683 5683 5682 5681 5680 5679 5678 5677 5677 5676 5676 5676 5676 5677 5677 5677 5678 5678 5678 5678 5678 5678
5746 5745 5743 5742 5741 5740 5738 5737 5736 5735 5733 5732 5732 5732 5731 5730 5729 5728 5727 5726 5726 5725 5724 5723 5722 5721 5721 5720 5719 5718 5717 5715 5715 5714 5713 5713 5712 5711 5711 5710 5709 5708 5707 5706 5704 5703 5701 5701 5699 5697 5696 5695 5694 5693 5692 5691 5690 5690 5689 5688 5687 5686 5685 5684 5683 5682 5681 5680 5678 5677 5676 5675 5675 5674 5674 5674 5675 5675 5675 5676 5676 5676 5676 5676 5676 5676
5745 5743 5742 5740 5739 5738 5736 5735 5734 5733 5731 5730 5730 5730 5729 5728 5727 5726 5725 5725 5724 5723 5722 5721 5721 5720 5719 5719 5718 5717 5715 5714 5713 5713 5712 5712 5711 5710 5709 5709 5708 5707 5707 5706 5704 5702 5701 5700 5699 5697 5696 5695 5694 5693 5692 5691 5690 5689 5689 5688 5687 5686 5685 5684 5683 5682 5680 5679 5678 5676 5675 5674 5674 5673 5673 5673 5674 5674 5675 5675 5675 5675 5675 5675 5675 5675
5743 5742 5740 5739 5738 5736 5735 5734 5733 5731 5730 5729 5728 5728 5727 5726 5725 5724 5723 5723 5723 5722 5720 5720 5719 5718 5718 5717 5716 5715 5714 5712 5712 5711 5711 5710 5710 5709 5708 5707 5706 5706 5705 5704 5703 5702 5701 5700 5698 5697 5695 5695 5694 5692 5692 5691 5690 5689 5688 5688 5687 5686 5684 5683 5682 5681 5680 5679 5678 5676 5675 5674 5674 5673 5673 5673 5673 5674 5674 5674 5675 5675 5675 5674 5674 5674
5741 5740 5738 5737 5736 5734 5733 5732 5731 5729 5728 5728 5727 5726 5725 5724 5723 5722 5722 5721 5720 5720 5719 5718 5717 5716 5716 5715 5714 5713 5712 5711 5710 5709 5709 5708 5708 5707 5706 5705 5705 5704 5704 5703 5702 5701 5700 5699 5698 5697 5695 5694 5693 5692 5691 5691 5690 5689 5688 5687 5686 5685 5684 5683 5682 5681 5680 5679 5678 5676 5675 5675 5674 5674 5673 5673 5673 5673 5674 5674 5674 5674 5674 5674 5674 5674
5739 5738 5736 5735 5734 5732 5731 5730 5729 5727 5726 5726 5725 5724 5723 5722 5721 5720 5719 5719 5718 5717 5716 5716 5715 5715 5714 5713 5712 5711 5710 5709 5708 5707 5707 5706 5706 5705 5704 5703 5703 5703 5702 5701 5700 5700 5699 5698 5697 5696 5695 5694 5693 5692 5691 5690 5689 5688 5688 5687 5686 5685 5684 5683 5682 5681 5680 5679 5678 5677 5676 5675 5675 5674 5674 5673 5673 5673 5673 5673 5673 5673 5674 5674 5673 5673
5737 5736 5735 5733 5732 5730 5729 5728 5726 5725 5725 5724 5723 5722 5720 5720 5719 5717 5716 5716 5715 5714 5714 5714 5713 5712 5711 5711 5710 5709 5708 5707 5706 5705 5705 5704 5704 5703 5702 5701 5701 5701 5700 5700 5699 5698 5698 5697 5696 5695 5694 5694 5692 5691 5691 5690 5689 5688 5687 5686 5685 5684 5684 5683 5682 5681 5680 5679 5678 5677 5676 5676 5675 5674 5674 5674 5673 5673 5673 5673 5673 5673 5673 5673 5673 5673
5734 5734 5732 5731 5729 5728 5727 5725 5723 5723 5723 5721 5720 5719 5717 5717 5716 5715 5714 5713 5712 5712 5712 5711 5710 5710 5709 5709 5708 5707 5706 5705 5704 5703 5703 5702 5702 5701 5700 5700 5699 5699 5699 5698 5697 5697 5696 5696 5695 5695 5694 5693 5692 5691 5690 5689 5688 5688 5687 5686 5685 5684 5683 5682 5681 5681 5680 5679 5678 5678 5677 5676 5675 5675 5674 5674 5674 5673 5673 5673 5673 5673 5673 5673 5673 5673
5732 5731 5730 5729 5727 5726 5725 5723 5722 5721 5720 5719 5718 5716 5715 5713 5713 5712 5711 5710 5709 5709 5709 5708 5708 5708 5707 5707 5706 5705 5704 5703 5702 5701 5701 5700 5700 5699 5699 5698 5697 5697 5697 5697 5696 5696 5695 5695 5694 5694 5693 5692 5692 5691 5690 5689 5688 5687 5686 5686 5685 5684 5683 5682 5681 5680 5679 5679 5678 5678 5677 5677 5676 5675 5675 5674 5674 5673 5673 5673 5673 5673 5673 5673 5673 5673
5728 5729 5728 5727 5725 5723 5722 5722 5720 5718 5717 5716 5715 5714 5712 5711 5709 5708 5707 5707 5706 5706 5706 5705 5705 5705 5705 5704 5704 5703 5702 5701 5700 5699 5699 5698 5697 5697 5697 5696 5695 5695 5695 5696 5695 5694 5694 5693 5693 5693 5692 5692 5691 5690 5690 5689 5688 5687 5686 5686 5685 5683 5682 5681 5680 5680 5679 5678 5678 5678 5677 5677 5676 5676 5675 5675 5674 5674 5673 5673 5673 5673 5673 5673 5673 5673
5725 5725 5725 5723 5722 5721 5720 5719 5717 5715 5714 5712 5711 5710 5708 5707 5706 5705 5704 5704 5703 5703 5703 5702 5702 5702 5702 5702 5701 5701 5700 5699 5698 5697 5696 5696 5695 5695 5694 5694 5694 5693 5693 5693 5694 5693 5693 5692 5692 5691 5691 5691 5690 5689 5689 5688 5688 5687 5686 5685 5685 5683 5682 5681 5680 5679 5678 5678 5677 5677 5677 5677 5676 5676 5676 5675 5675 5674 5674 5674 5673 5673 5673 5673 5673 5673
5723 5723 5722 5720 5719 5718 5717 5715 5713 5712 5711 5709 5707 5705 5704 5703 5703 5701 5701 5700 5700 5699 5699 5699 5699 5699 5699 5698 5699 5698 5697 5697 5696 5695 5694 5693 5693 5692 5692 5692 5692 5692 5691 5691 5691 5691 5691 5691 5690 5690 5690 5689 5689 5688 5688 5687 5687 5687 5686 5685 5684 5683 5682 5681 5680 5679 5678 5677 5677 5676 5676 5676 5676 5676 5676 5675 5675 5675 5674 5674 5674 5674 5673 5673 5673 5674
5720 5720 5719 5717 5716 5715 5713 5711 5709 5708 5707 5706 5704 5702 5700 5699 5699 5698 5697 5697 5696 5696 5696 5695 5696 5696 5695 5695 5695 5695 5695 5695 5694 5693 5692 5691 5690 5690 5690 5690 5690 5690 5690 5689 5689 5689 5689 5689 5689 5688 5688 5688 5688 5687 5687 5686 5686 5686 5685 5685 5684 5683 5682 5681 5680 5679 5678 5677 5677 5676 5676 5675 5675 5675 5675 5675 5675 5675 5674 5674 5674 5674 5674 5674 5674 5674
5717 5716 5715 5713 5712 5711 5710 5706 5704 5704 5704 5702 5700 5698 5697 5695 5695 5694 5693 5693 5693 5692 5692 5692 5692 5692 5692 5692 5692 5692 5692 5692 5691 5690 5689 5688 5688 5688 5688 5687 5687 5687 5687 5687 5687 5687 5687 5687 5687 5687 5687 5687 5686 5686 5686 5685 5685 5685 5684 5684 5683 5683 5682 5681 5680 5680 5679 5678 5677 5676 5675 5675 5675 5675 5675 5675 5674 5674 5674 5674 5674 5674 5674 5674 5674 5674
5714 5713 5712 5710 5709 5707 5706 5703 5701 5700 5700 5698 5696 5695 5693 5692 5691 5690 5690 5690 5689 5689 5689 5689 5689 5689 5689 5688 5688 5688 5688 5688 5688 5687 5687 5686 5685 5685 5685 5685 5685 5685 5685 5685 5685 5685 5685 5685 5685 5685 5685 5685 5685 5685 5684 5684 5684 5684 5683 5683 5683 5682 5682 5681 5680 5680 5679 5678 5677 5676 5676 5675 5674 5674 5674 5674 5674 5674 5674 5674 5674 5673 5673 5673 5673 5673